Preview of NWS' New Version of Forecast
This preview is not operational and should not be used for support decisions.
Latest weather observations around

Fort Myers, Page Field (KFMY)

Using English Units (Switch to International System of Units)
Date/ Time (EDT) Wind (mph) Vis. (mi) Weather Sky Cond. Temp (°F) Rel. Humidity Wind Chill (°F) Heat Index (°F) Pressure Precip. (in)
Air Dwpt 6 hour Altimeter (inHg) Sea level (inHg) 1 hr 3 hr 6 hr
Max Min
Mar 26 15:53 W 15 10 Clear CLR 83        %     29.96 29.97      
Mar 26 14:53 NW 11 10 Clear CLR 81 59     47%   81 29.98 29.98      
Mar 26 13:53 W 9 10 Mostly Clear FEW065 81 62     53%   82 30 30.01      
Mar 26 12:53 W 6 10 Mostly Cloudy SCT030 BKN041 BKN049 76 63     64%   76 30.03 30.03      
Mar 26 12:35 NNW 6 10 Mostly Cloudy SCT026 SCT036 BKN049 78 63     60%   78 30.04        
Mar 26 12:22 NNW 6 10 Cloudy BKN026 OVC045 76 64     67%   76 30.04        
Mar 26 11:53 3 10 Mostly Cloudy FEW021 SCT034 BKN055 76 64     67%   76 30.05 30.05      
Mar 26 10:53 NNW 8 10 Mostly Cloudy SCT013 BKN028 BKN048 75 65     71%   76 30.05 30.06      
Mar 26 09:53 N 7 10 Partly Cloudy FEW011 SCT019 73 66     79%   74 30.04 30.05      
Mar 26 09:41 N 6 10 Partly Cloudy SCT012 SCT019 72 66     82%   73 30.04        
Mar 26 08:53 NW 3 10 Cloudy OVC013 69 64     84%     30.04 30.04      
Mar 26 08:26 Calm 10 Mostly Cloudy BKN014 BKN055 67 64     90%     30.03        
Mar 26 07:53 Calm 10 Partly Cloudy SCT055 65 63     93%     30.03 30.04      
Mar 26 06:53 SE 3 10 Mostly Cloudy FEW055 BKN090 65 63     93%     30.02 30.03      
Mar 26 05:53 SSE 3 10 Partly Cloudy SCT080 64 62     93%     30.01 30.01      
Mar 26 04:53 Calm 10 Clear CLR 65 62     90%     30 30.01      
Mar 26 03:53 Calm 10 Clear CLR 66 63     90%     30.01 30.01      
Mar 26 02:53 SE 3 10 Mostly Clear FEW060 67 63     87%     30.01 30.02      
Mar 26 01:53 Calm 10 Partly Cloudy SCT060 68 63     84%     30.04 30.04      
Mar 26 00:53 NNW 6 10 Mostly Cloudy BKN065 69 64     84%     30.05 30.06      
Mar 25 23:53 NNW 5 10 Clear CLR 69 64     84%     30.05 30.06      
Mar 25 22:53 NW 3 10 Clear CLR 71 63     76%   71 30.04 30.05      
Mar 25 21:53 NW 6 10 Clear CLR 71 63     76%   71 30.04 30.05      
Mar 25 20:53 WNW 7 10 Clear CLR 73 61     66%   73 30.03 30.03      
Mar 25 19:53 W 10 10 Clear CLR 75 60     60%   75 30.03 30.03      
Mar 25 18:53 W 8 10 Clear CLR 78 59     52%   78 30.02 30.02      
Mar 25 17:53 WNW 14 10 Clear CLR 81 60     49%   82 30.02 30.03      
Mar 25 16:53 WNW 8 10 Clear CLR 84 55     37%   83 30.02 30.02      
Mar 25 15:53 WSW 6 10 Partly Cloudy SCT060 83 55     38%   82 30.03 30.03      
Mar 25 14:53 5 10 Mostly Clear FEW060 83 55     38%   82 30.06 30.06      
Mar 25 13:53 3 10 Partly Cloudy SCT050 82 54     38%   81 30.08 30.09      
Mar 25 12:53 Calm 10 Mostly Clear FEW047 80 56     44%   80 30.11 30.11      
Mar 25 11:53 E 7 10 Clear CLR 79 55     44%   79 30.12 30.12      
Mar 25 10:53 E 9 10 Clear CLR 76 59     56%   76 30.12 30.13      
Mar 25 09:53 SE 5 10 Clear CLR 73 61     66%   73 30.13 30.13      
Mar 25 08:53 Calm 10 Clear CLR 67 61     81%     30.12 30.12      
Mar 25 07:53 Calm 10 Clear   63 60     90%     30.11 30.11      
Mar 25 06:53 ENE 3 10 Clear CLR 62 60     93%     30.09 30.09      
Mar 25 05:53 Calm 10 Clear CLR 62 60     93%     30.08 30.09      
Mar 25 04:53 Calm 10 Clear CLR 62 60     93%     30.09 30.09      
Mar 25 03:53 Calm 10 Clear CLR 64 60     87%     30.11 30.11      
Mar 25 02:53 Calm 10 Clear CLR 65 60     84%     30.13 30.13      
Mar 25 01:53 SSE 3 10 Clear CLR 67 60     79%     30.15 30.15      
Mar 25 00:53 SE 7 10 Clear CLR 68 60     76%     30.16 30.16      
Mar 24 23:53 SE 7 10 Partly Cloudy SCT049 70 60     71%     30.17 30.17      
Mar 24 22:53 ESE 6 10 Cloudy OVC046 71 60     68%   71 30.17 30.18      
Mar 24 21:53 E 3 10 Clear CLR 71 60     68%   71 30.16 30.16      
Mar 24 20:53 S 5 10 Partly Cloudy SCT050 74 62     66%   74 30.14 30.15      
Mar 24 19:53 W 7 10 Partly Cloudy SCT070 75 62     64%   75 30.14 30.14      
Mar 24 18:53 SSE 6 10 Clear CLR 80 53     39%   80 30.13 30.13      
Mar 24 17:53 Calm 10 Mostly Clear FEW065 80 51     36%   79 30.13 30.13      
Mar 24 16:53 3 10 Clear CLR 82 50     33%   81 30.13 30.13      
Mar 24 16:14 6 10 Partly Cloudy SCT065 81 49     33%   80 30.13        
Mar 24 15:53 6 10 Partly Cloudy SCT065 82 49     32%   81 30.14 30.14      
Mar 24 14:53 E 7 10 Mostly Cloudy BKN065 83 49     31%   81 30.16 30.16      
Mar 24 13:53 E 10 10 Partly Cloudy SCT055 81 53     38%   80 30.18 30.19      
Mar 24 12:53 E 10 10 Clear CLR 80 56     44%   80 30.2 30.21      
Mar 24 11:53 ESE 15 10 Clear CLR 77 56     48%   77 30.22 30.22      
Mar 24 10:53 E 6 10 Clear CLR 73 58     59%   73 30.23 30.24      
Mar 24 09:53 E 7 10 Clear CLR 69 59     70%     30.22 30.23      
Mar 24 08:53 ENE 7 10 Clear CLR 64 59     84%     30.21 30.21      
Mar 24 07:53 ENE 5 9 Clear CLR 60 58     93%     30.19 30.2      
Mar 24 06:53 E 3 10 Clear CLR 58 56     93%     30.18 30.19      
Mar 24 05:53 E 3 10 Clear CLR 59 56     90%     30.17 30.18      
Mar 24 04:53 Calm 10 Clear CLR 61 57     87%     30.18 30.18      
Mar 24 03:53 E 5 10 Clear CLR 61 57     87%     30.18 30.18      
Mar 24 02:53 E 5 10 Mostly Cloudy BKN047 61 56     83%     30.19 30.19      
Mar 24 01:53 NE 5 10 Cloudy OVC048 62 55     78%     30.2 30.21      
Mar 24 00:53 NE 6 10 Mostly Cloudy BKN049 62 55     78%     30.21 30.22      
Mar 23 23:53 NE 3 10 Partly Cloudy SCT050 62 55     78%     30.21 30.22      
Mar 23 22:53 NNW 3 10 Clear CLR 64 55     73%     30.2 30.2      
Mar 23 21:53 NNW 5 10 Clear CLR 66 54     65%     30.2 30.2      
Mar 23 20:53 NW 3 10 Clear CLR 67 53     61%     30.18 30.18      
Mar 23 19:53 WSW 6 10 Clear CLR 68 52     57%     30.16 30.17      
Mar 23 18:53 Calm 10 Clear CLR 75 48     38%   74 30.15 30.16      
Mar 23 17:53 WNW 5 10 Clear CLR 74 49     41%   73 30.15 30.15      
Mar 23 16:53 WSW 8 10 Clear CLR 74 50     43%   73 30.14 30.15      
Mar 23 15:53 3 10 Clear CLR 75        %     30.15 30.16      
May 14 11:53 SSW 6 5 Light Rain and Fog/Mist SCT100 OVC120 75 72     90%   76 29.93 29.94 0    
May 14 05:53 SE 5 8 Light Rain SCT006 BKN011 OVC030 71 70     96%   72 29.93 29.93 0    
May 13 13:07 E 8 9 Clear   75 71     88%   76 30.03   0    
Notice The following observation data may not be complete
May 12 19:53   10 Clear CLR          %              
May 12 16:53 ENE 13 10 Clear CLR 83 63     51%   84 30.04 30.04      
May 12 12:53 NE 7 8 Cloudy OVC100 81 65     58%   83 30.12 30.12      
May 12 05:53 Calm 7 Clear CLR 72 62     71%   72 30.07 30.07 0    
May 12 02:53 Calm 7 Clear CLR 74 60     62%   74 30.07 30.07      
May 12 01:53 Calm 6 Haze CLR 75 58     55%   75 30.08 30.09      
May 12 00:53 S 3 7 Clear CLR 77 57     50%   77 30.1 30.11      
Jun 11 18:29 E 11 9 Clear   76 72     88%   77 30.07   0    
Jun 11 17:32 3 6 Cloudy SCT048 BKN090 OVC110 83 75     77%   90 30.05   0    
Jun 11 15:53 SE 9 10 Clear   90 77     66%   103 30.07 30.08      
Jun 11 06:44 E 5 6 Fog/Mist SCT005 77 77     100%   79 30.08        
Jun 10 22:53 E 5 10 Clear   75 75     100%   77 30.08 30.08      
Jun 10 00:18 Calm 10 Light Rain BKN024 OVC034 79 76     90%   83 29.96   0    
Jun 09 21:53 SSW 3 10 Clear CLR 82 71     69%   86 29.94 29.95      
Jun 09 07:53 ENE 9 8 Mostly Cloudy BKN006 75 74     96%   77 29.9 29.91      
Notice The following observation data may not be complete
Jun 06 14:53     Clear            %     29.77 29.78 0    
Notice The following observation data may not be complete
Jun 06 13:43   10 Cloudy FEW011 OVC017          %         0    
Jun 05 16:53 NNW 7 10 Cloudy FEW010 BKN041 OVC110 76 75     97%   78 29.9 29.91 0 0